QPF
0.00 0.00 0.00 0.00 0.00 0.00 0.00 0.00 0.00 0.00 0.00 0.00 0.00 0.00 0.00 0.00 0.00 0.00 0.00 0.00 0.00 0.00 0.00 0.00 0.00 0.00 0.00 0.00 0.00 0.00 0.00 0.00 0.00 0.00 0.00 0.00 0.00 0.00 0.00 0.00 0.00 0.00 0.00 0.00 0.00
0.00 0.00 0.00 0.00 0.00 0.00 0.00 0.00 0.00 0.00 0.00 0.00 0.00 0.00 0.00 0.00 0.00 0.00 0.00 0.00 0.00 0.00 0.00 0.00 0.00 0.00 0.00 0.00 0.00 0.00 0.00 0.00 0.00 0.00 0.00 0.00 0.00 0.00 0.00 0.00 0.00 0.00 0.00 0.00 0.00
0.00 0.00 0.00 0.00 0.00 0.00 0.00 0.00 0.00 0.00 0.00 0.00 0.00 0.00 0.00 0.00 0.00 0.00 0.00 0.00 0.00 0.00 0.00 0.00 0.00 0.00 0.00 0.00 0.00 0.00 0.00 0.00 0.00 0.00 0.00 0.00 0.00 0.00 0.00 0.00 0.00 0.00 0.00 0.00 0.00
0.00 0.00 0.00 0.00 0.00 0.00 0.00 0.00 0.00 0.00 0.00 0.00 0.00 0.00 0.00 0.00 0.00 0.00 0.00 0.00 0.00 0.00 0.00 0.00 0.00 0.00 0.00 0.00 0.00 0.00 0.00 0.00 0.00 0.00 0.00 0.00 0.00 0.00 0.00 0.00 0.00 0.00 0.00 0.00 0.00
0.00 0.00 0.00 0.00 0.00 0.00 0.00 0.00 0.00 0.00 0.00 0.00 0.00 0.00 0.00 0.00 0.00 0.00 0.00 0.00 0.00 0.00 0.00 0.00 0.00 0.00 0.00 0.00 0.00 0.00 0.00 0.00 0.00 0.00 0.00 0.00 0.00 0.00 0.00 0.00 0.00 0.00 0.00 0.00 0.00
0.00 0.00 0.00 0.00 0.00 0.00 0.00 0.00 0.00 0.00 0.00 0.00 0.00 0.00 0.00 0.00 0.00 0.00 0.00 0.00 0.00 0.00 0.00 0.00 0.00 0.00 0.00 0.00 0.00 0.00 0.00 0.00 0.00 0.00 0.00 0.00 0.00 0.00 0.00 0.00 0.00 0.00 0.00 0.00 0.00
0.00 0.00 0.00 0.00 0.00 0.00 0.00 0.00 0.00 0.00 0.00 0.00 0.00 0.00 0.00 0.00 0.00 0.00 0.00 0.00 0.00 0.00 0.00 0.00 0.00 0.00 0.00 0.00 0.00 0.00 0.00 0.00 0.00 0.00 0.00 0.00 0.00 0.00 0.00 0.00 0.00 0.00 0.00 0.00 0.00
0.00 0.00 0.00 0.00 0.00 0.00 0.00 0.00 0.00 0.00 0.00 0.00 0.00 0.00 0.00 0.00 0.00 0.00 0.00 0.00 0.00 0.00 0.00 0.00 0.00 0.00 0.00 0.00 0.00 0.00 0.00 0.00 0.00 0.00 0.00 0.00 0.00 0.00 0.00 0.00 0.00 0.00 0.00 0.00 0.00
0.00 0.00 0.00 0.00 0.00 0.00 0.00 0.00 0.00 0.00 0.00 0.00 0.00 0.00 0.00 0.00 0.00 0.00 0.00 0.00 0.00 0.00 0.00 0.00 0.00 0.00 0.00 0.00 0.00 0.00 0.00 0.00 0.00 0.00 0.00 0.00 0.00 0.00 0.00 0.00 0.00 0.00 0.00 0.00 0.00
0.00 0.00 0.00 0.00 0.00 0.00 0.00 0.00 0.00 0.00 0.00 0.00 0.00 0.00 0.00 0.00 0.00 0.00 0.00 0.00 0.00 0.00 0.00 0.00 0.00 0.00 0.00 0.00 0.00 0.00 0.00 0.00 0.00 0.00 0.00 0.00 0.00 0.00 0.00 0.00 0.00 0.00 0.00 0.00 0.00
0.00 0.00 0.00 0.00 0.00 0.00 0.00 0.00 0.00 0.00 0.00 0.00 0.00 0.00 0.00 0.00 0.00 0.00 0.00 0.00 0.00 0.00 0.00 0.00 0.00 0.00 0.00 0.00 0.00 0.00 0.00 0.00 0.00 0.00 0.00 0.00 0.00 0.00 0.00 0.00 0.00 0.00 0.00 0.00 0.00
0.00 0.00 0.00 0.00 0.00 0.00 0.00 0.00 0.00 0.00 0.00 0.00 0.00 0.00 0.00 0.00 0.00 0.00 0.00 0.00 0.00 0.00 0.00 0.00 0.00 0.00 0.00 0.00 0.00 0.00 0.00 0.00 0.00 0.00 0.00 0.00 0.00 0.00 0.00 0.00 0.00 0.00 0.00 0.00 0.00
0.00 0.00 0.00 0.00 0.00 0.00 0.00 0.00 0.00 0.00 0.00 0.00 0.00 0.00 0.00 0.00 0.00 0.00 0.00 0.00 0.00 0.00 0.00 0.00 0.00 0.00 0.00 0.00 0.00 0.00 0.00 0.00 0.00 0.00 0.00 0.00 0.00 0.00 0.00 0.00 0.00 0.00 0.00 0.00 0.00
0.00 0.00 0.00 0.00 0.00 0.00 0.00 0.00 0.00 0.00 0.00 0.00 0.00 0.00 0.00 0.00 0.00 0.00 0.00 0.00 0.00 0.00 0.00 0.00 0.00 0.00 0.00 0.00 0.00 0.00 0.00 0.00 0.00 0.00 0.00 0.00 0.00 0.00 0.00 0.00 0.00 0.00 0.00 0.00 0.00
0.00 0.00 0.00 0.00 0.00 0.00 0.00 0.00 0.00 0.00 0.00 0.00 0.00 0.00 0.00 0.00 0.00 0.00 0.00 0.00 0.00 0.00 0.00 0.00 0.00 0.00 0.00 0.00 0.00 0.00 0.00 0.00 0.00 0.00 0.00 0.00 0.00 0.00 0.00 0.00 0.00 0.00 0.00 0.00 0.00
0.00 0.00 0.00 0.00 0.00 0.00 0.00 0.00 0.00 0.00 0.00 0.00 0.00 0.00 0.00 0.00 0.00 0.00 0.00 0.00 0.00 0.00 0.00 0.00 0.00 0.00 0.00 0.00 0.00 0.00 0.00 0.00 0.00 0.00 0.00 0.00 0.00 0.00 0.00 0.00 0.00 0.00 0.00 0.00 0.00
0.00 0.00 0.00 0.00 0.00 0.00 0.00 0.00 0.00 0.00 0.00 0.00 0.00 0.00 0.00 0.00 0.00 0.00 0.00 0.00 0.00 0.00 0.00 0.00 0.00 0.00 0.00 0.00 0.00 0.00 0.00 0.00 0.00 0.00 0.00 0.00 0.00 0.00 0.00 0.00 0.00 0.00 0.00 0.00 0.00
0.00 0.00 0.00 0.00 0.00 0.00 0.00 0.00 0.00 0.00 0.00 0.00 0.00 0.00 0.00 0.00 0.00 0.00 0.00 0.00 0.00 0.00 0.00 0.00 0.00 0.00 0.00 0.00 0.00 0.00 0.00 0.00 0.00 0.00 0.00 0.00 0.00 0.00 0.00 0.00 0.00 0.00 0.00 0.00 0.00
0.00 0.00 0.00 0.00 0.00 0.00 0.00 0.00 0.00 0.00 0.00 0.00 0.00 0.00 0.00 0.00 0.00 0.00 0.00 0.00 0.00 0.00 0.00 0.00 0.00 0.00 0.00 0.00 0.00 0.00 0.00 0.00 0.00 0.00 0.00 0.00 0.00 0.00 0.00 0.00 0.00 0.00 0.00 0.00 0.00
0.00 0.00 0.00 0.00 0.00 0.00 0.00 0.00 0.00 0.00 0.00 0.00 0.00 0.00 0.00 0.00 0.00 0.00 0.00 0.00 0.00 0.00 0.00 0.00 0.00 0.00 0.00 0.00 0.00 0.00 0.00 0.00 0.00 0.00 0.00 0.00 0.00 0.00 0.00 0.00 0.00 0.00 0.00 0.00 0.00
0.00 0.00 0.00 0.00 0.00 0.00 0.00 0.00 0.00 0.00 0.00 0.00 0.00 0.00 0.00 0.00 0.00 0.00 0.00 0.00 0.00 0.00 0.00 0.00 0.00 0.00 0.00 0.00 0.00 0.00 0.00 0.00 0.00 0.00 0.00 0.00 0.00 0.00 0.00 0.00 0.00 0.00 0.00 0.00 0.00
0.00 0.00 0.00 0.00 0.00 0.00 0.00 0.00 0.00 0.00 0.00 0.00 0.00 0.00 0.00 0.00 0.00 0.00 0.00 0.00 0.00 0.00 0.00 0.00 0.00 0.00 0.00 0.00 0.00 0.00 0.00 0.00 0.00 0.00 0.00 0.00 0.00 0.00 0.00 0.00 0.00 0.00 0.00 0.00 0.00
0.00 0.00 0.00 0.00 0.00 0.00 0.00 0.00 0.00 0.00 0.00 0.00 0.00 0.00 0.00 0.00 0.00 0.00 0.00 0.00 0.00 0.00 0.00 0.00 0.00 0.00 0.00 0.00 0.00 0.00 0.00 0.00 0.00 0.00 0.00 0.00 0.00 0.00 0.00 0.00 0.00 0.00 0.00 0.00 0.00
0.00 0.00 0.00 0.00 0.00 0.00 0.00 0.00 0.00 0.00 0.00 0.00 0.00 0.00 0.00 0.00 0.00 0.00 0.00 0.00 0.00 0.00 0.00 0.00 0.00 0.00 0.00 0.00 0.00 0.00 0.00 0.00 0.00 0.00 0.00 0.00 0.00 0.00 0.00 0.00 0.00 0.00 0.00 0.00 0.00
0.00 0.00 0.00 0.00 0.00 0.00 0.00 0.00 0.00 0.00 0.00 0.00 0.00 0.00 0.00 0.00 0.00 0.00 0.00 0.00 0.00 0.00 0.00 0.00 0.00 0.00 0.00 0.00 0.00 0.00 0.00 0.00 0.00 0.00 0.00 0.00 0.00 0.00 0.00 0.00 0.00 0.00 0.00 0.00 0.00
0.00 0.00 0.00 0.00 0.00 0.00 0.00 0.00 0.00 0.00 0.00 0.00 0.00 0.00 0.00 0.00 0.00 0.00 0.00 0.00 0.00 0.00 0.00 0.00 0.00 0.00 0.00 0.00 0.00 0.00 0.00 0.00 0.00 0.00 0.00 0.00 0.00 0.00 0.00 0.00 0.00 0.00 0.00 0.00 0.00
0.00 0.00 0.00 0.00 0.00 0.00 0.00 0.00 0.00 0.00 0.00 0.00 0.00 0.00 0.00 0.00 0.00 0.00 0.00 0.00 0.00 0.00 0.00 0.00 0.00 0.00 0.00 0.00 0.00 0.00 0.00 0.00 0.00 0.00 0.00 0.00 0.00 0.00 0.00 0.00 0.00 0.00 0.00 0.00 0.00
MSLP
1019.46 1019.06 1018.68 1018.29 1017.86 1017.41 1016.90 1016.39 1015.90 1015.42 1014.99 1014.64 1014.40 1014.25 1014.07 1013.88 1013.52 1013.55 1012.57 1010.22 1010.16 1010.10 1010.28 1010.64 1010.95 1011.15 1011.41 1011.85 1012.07 1012.55 1013.54 1013.97 1013.42 1013.16 1012.29 1012.31 1012.46 1012.62 1012.58 1012.60 1012.69 1012.84 1012.99 1013.08 1013.89
1019.60 1019.18 1018.74 1018.29 1017.84 1017.38 1016.86 1016.33 1015.84 1015.33 1014.89 1014.57 1014.31 1014.10 1013.86 1013.67 1013.31 1012.19 1009.43 1009.39 1009.78 1009.95 1010.32 1010.67 1010.97 1011.08 1011.67 1011.95 1012.31 1012.61 1013.42 1012.93 1012.14 1011.97 1012.00 1012.20 1012.07 1012.33 1012.70 1012.79 1012.89 1012.84 1012.88 1013.07 1013.94
1019.72 1019.27 1018.75 1018.21 1017.70 1017.15 1016.68 1016.18 1015.65 1015.16 1014.74 1014.40 1014.14 1013.93 1013.68 1013.54 1012.82 1009.93 1008.69 1009.00 1009.59 1009.97 1010.13 1010.48 1010.72 1010.97 1011.53 1011.81 1012.09 1012.41 1012.43 1012.01 1011.33 1011.05 1011.31 1011.74 1012.13 1012.14 1012.34 1012.84 1012.22 1012.17 1012.70 1013.28 1014.15
1019.83 1019.30 1018.71 1018.15 1017.56 1016.96 1016.41 1015.91 1015.39 1014.87 1014.52 1014.21 1013.95 1013.72 1013.49 1013.30 1011.65 1008.95 1008.51 1008.71 1009.45 1009.92 1010.16 1010.50 1010.77 1011.16 1011.42 1011.59 1011.61 1011.94 1011.43 1011.15 1010.61 1010.57 1011.14 1011.38 1011.38 1011.78 1011.68 1011.41 1011.29 1011.60 1012.18 1013.06 1014.02
1019.88 1019.30 1018.64 1018.03 1017.40 1016.70 1016.07 1015.56 1015.09 1014.64 1014.29 1014.04 1013.82 1013.61 1013.49 1012.68 1010.56 1008.87 1008.73 1008.86 1009.57 1009.99 1010.24 1010.54 1010.71 1010.98 1011.22 1011.27 1011.42 1011.53 1011.05 1010.60 1010.14 1010.16 1010.51 1010.70 1010.97 1011.20 1010.85 1010.84 1010.89 1011.40 1012.08 1012.85 1013.69
1019.88 1019.31 1018.65 1017.95 1017.20 1016.44 1015.77 1015.20 1014.70 1014.27 1013.94 1013.76 1013.65 1013.53 1013.23 1011.79 1009.01 1008.90 1009.11 1009.36 1009.53 1009.95 1010.25 1010.45 1010.44 1010.50 1010.82 1010.95 1010.95 1010.59 1010.37 1009.79 1009.81 1009.70 1010.34 1010.57 1010.80 1011.05 1010.13 1010.59 1011.06 1011.25 1012.08 1012.71 1013.29
1019.90 1019.29 1018.62 1017.82 1017.00 1016.16 1015.39 1014.76 1014.23 1013.84 1013.55 1013.40 1013.40 1013.38 1012.82 1010.13 1008.86 1009.04 1009.31 1009.33 1009.43 1009.59 1010.02 1010.10 1010.10 1010.42 1010.65 1010.69 1010.45 1010.41 1010.40 1009.63 1009.71 1009.71 1009.97 1010.02 1011.27 1010.46 1010.17 1010.36 1010.96 1011.55 1011.95 1012.52 1012.97
1019.89 1019.21 1018.50 1017.68 1016.79 1015.86 1015.00 1014.24 1013.61 1013.24 1013.18 1013.14 1013.27 1013.23 1011.82 1009.08 1008.97 1009.01 1009.14 1009.34 1009.41 1009.49 1009.68 1009.73 1009.87 1010.32 1010.68 1010.73 1010.80 1010.91 1010.88 1010.64 1009.90 1009.43 1009.95 1009.74 1010.40 1009.71 1010.20 1010.31 1011.09 1011.59 1011.92 1012.48 1012.79
1019.80 1019.13 1018.40 1017.47 1016.59 1015.60 1014.62 1013.85 1013.10 1012.83 1012.95 1013.04 1013.28 1012.90 1010.98 1008.92 1008.76 1008.27 1008.61 1008.88 1009.18 1009.38 1009.46 1009.63 1009.96 1010.69 1011.04 1011.44 1011.96 1011.94 1011.59 1011.09 1010.13 1009.51 1009.58 1010.12 1010.41 1009.48 1010.24 1010.84 1011.38 1011.58 1011.88 1012.20 1012.69
1019.77 1019.10 1018.27 1017.28 1016.37 1015.34 1014.36 1013.44 1013.21 1012.97 1013.15 1013.18 1012.90 1012.82 1010.25 1008.91 1008.19 1008.03 1008.42 1008.70 1009.00 1009.20 1009.63 1009.93 1010.74 1011.28 1011.91 1012.05 1012.55 1012.22 1011.85 1011.40 1010.70 1009.90 1009.74 1009.86 1009.91 1009.90 1009.87 1010.51 1010.69 1011.12 1011.83 1012.16 1012.28
1019.82 1019.11 1018.21 1017.18 1016.21 1015.20 1014.31 1013.46 1013.86 1013.57 1013.06 1012.23 1011.71 1011.02 1009.66 1008.53 1007.84 1007.92 1008.23 1008.71 1009.05 1009.48 1010.08 1010.55 1011.35 1011.68 1011.81 1011.93 1011.82 1011.79 1011.71 1011.51 1010.60 1009.80 1009.77 1009.76 1010.01 1009.82 1009.93 1010.53 1010.74 1011.21 1011.68 1011.83 1011.70
1019.88 1019.16 1018.20 1017.13 1015.96 1015.03 1014.70 1014.48 1014.70 1014.74 1013.29 1011.06 1010.46 1010.12 1009.14 1008.83 1008.97 1008.02 1007.95 1008.71 1009.33 1010.10 1010.49 1011.17 1011.30 1011.12 1011.31 1011.40 1011.51 1011.52 1011.47 1011.16 1010.50 1010.13 1010.04 1010.19 1009.99 1009.88 1010.03 1009.53 1009.76 1010.58 1011.41 1011.78 1012.36
1019.84 1019.20 1018.32 1017.03 1015.78 1015.22 1015.62 1014.63 1014.52 1014.33 1013.68 1010.23 1009.19 1008.75 1008.48 1008.70 1008.68 1007.97 1008.02 1008.43 1009.28 1010.26 1010.78 1011.16 1010.78 1010.56 1010.78 1010.91 1011.13 1011.20 1011.18 1010.90 1011.05 1010.67 1010.59 1010.71 1010.97 1010.73 1010.38 1010.55 1010.92 1011.36 1011.93 1012.14 1012.32
1019.79 1019.23 1018.59 1017.25 1015.97 1016.61 1015.28 1014.24 1014.25 1014.11 1013.30 1009.93 1008.52 1007.40 1007.62 1007.76 1007.88 1007.24 1007.36 1008.10 1009.20 1009.84 1010.76 1010.82 1010.18 1010.14 1010.22 1010.38 1010.46 1010.55 1010.13 1010.55 1011.08 1011.62 1011.90 1011.97 1012.61 1011.79 1011.57 1011.52 1011.72 1012.60 1013.40 1013.36 1013.22
1019.79 1019.21 1018.80 1018.47 1018.07 1016.98 1014.59 1013.93 1013.50 1013.54 1012.38 1008.61 1007.63 1006.75 1007.04 1007.18 1006.80 1006.87 1006.76 1007.55 1008.75 1009.59 1010.39 1010.26 1009.91 1009.67 1009.68 1009.65 1009.88 1010.24 1010.20 1010.97 1011.63 1012.40 1012.76 1012.99 1013.46 1012.83 1012.85 1013.37 1013.98 1014.46 1014.78 1014.82 1014.02
1019.51 1019.14 1018.76 1018.51 1018.34 1015.64 1014.70 1014.07 1013.56 1013.66 1011.21 1008.04 1007.04 1006.87 1007.21 1006.94 1006.56 1006.74 1006.96 1007.28 1008.30 1009.33 1009.93 1009.99 1009.53 1009.28 1009.00 1009.10 1009.49 1009.97 1010.95 1012.20 1013.37 1013.98 1014.83 1014.14 1014.44 1014.53 1014.98 1015.47 1015.67 1016.44 1016.60 1016.27 1015.88
1018.89 1018.54 1018.60 1018.50 1016.48 1015.06 1014.80 1014.49 1014.41 1012.96 1009.90 1008.33 1007.41 1007.12 1007.13 1006.98 1006.83 1006.78 1007.30 1007.94 1008.87 1009.75 1010.39 1010.09 1009.57 1009.00 1008.77 1009.15 1009.77 1010.64 1012.23 1013.85 1015.20 1015.92 1015.86 1014.96 1015.33 1015.32 1015.49 1015.88 1016.23 1016.55 1016.83 1016.98 1017.18
1018.16 1017.45 1016.56 1015.95 1015.35 1015.62 1015.50 1015.18 1014.22 1011.65 1010.09 1008.39 1007.53 1007.08 1007.07 1006.91 1006.94 1007.07 1007.65 1008.47 1008.92 1009.43 1010.70 1010.59 1009.89 1008.97 1008.62 1008.88 1009.63 1010.84 1012.19 1013.90 1015.43 1016.96 1016.39 1015.88 1015.78 1015.46 1015.80 1016.41 1016.86 1017.36 1017.91 1018.09 1018.45
1017.64 1016.89 1016.52 1014.71 1015.09 1015.41 1015.47 1015.32 1013.25 1011.56 1010.01 1008.85 1007.73 1007.27 1006.96 1006.59 1006.71 1007.23 1007.90 1008.25 1008.51 1009.03 1010.02 1010.45 1009.89 1008.78 1008.37 1008.45 1009.23 1011.01 1012.22 1013.19 1015.31 1017.14 1017.20 1016.48 1016.21 1015.90 1016.20 1016.95 1017.59 1018.16 1018.71 1019.31 1019.49
1018.22 1017.41 1015.83 1014.18 1014.75 1015.14 1015.18 1014.44 1012.91 1011.31 1010.08 1009.12 1008.43 1007.66 1007.24 1006.90 1007.05 1007.40 1007.95 1007.67 1008.06 1008.37 1008.46 1009.81 1009.95 1009.16 1008.55 1008.81 1009.79 1010.47 1011.89 1013.64 1015.42 1017.40 1017.97 1017.07 1016.67 1016.08 1016.34 1017.18 1018.03 1018.70 1019.01 1019.48 1019.97
1018.36 1017.13 1014.46 1014.12 1014.84 1014.75 1014.73 1013.93 1012.46 1010.96 1010.26 1009.42 1008.72 1008.09 1007.50 1007.15 1007.03 1007.33 1007.56 1007.37 1007.43 1008.14 1008.61 1009.83 1010.20 1010.06 1009.46 1009.62 1010.14 1011.28 1012.38 1014.06 1015.58 1016.79 1017.52 1017.52 1016.62 1015.11 1015.83 1016.49 1017.41 1018.34 1018.98 1019.49 1020.21
1018.76 1017.38 1014.70 1014.53 1015.01 1014.96 1014.32 1013.11 1011.99 1010.77 1009.99 1009.43 1008.87 1008.41 1007.91 1007.37 1007.18 1007.19 1007.23 1006.95 1006.96 1007.55 1008.96 1009.40 1010.16 1010.81 1010.64 1010.23 1010.34 1010.87 1012.15 1013.45 1015.37 1017.14 1017.50 1017.11 1015.70 1014.83 1015.49 1016.33 1017.10 1017.93 1018.70 1019.54 1020.14
1019.67 1017.73 1014.82 1014.55 1014.88 1014.64 1013.63 1012.64 1011.67 1010.81 1010.12 1009.66 1008.96 1008.13 1007.70 1007.48 1007.44 1007.13 1006.99 1006.85 1007.01 1007.67 1008.22 1009.23 1010.58 1011.36 1011.43 1011.22 1010.84 1011.39 1012.23 1013.16 1014.57 1015.85 1016.91 1017.01 1015.87 1014.92 1015.42 1016.06 1016.89 1017.81 1018.70 1019.46 1020.35
1020.24 1018.47 1016.08 1015.17 1014.63 1014.04 1013.38 1012.52 1011.62 1010.56 1010.03 1009.50 1008.86 1008.15 1007.89 1007.68 1007.46 1007.36 1007.27 1007.22 1007.34 1007.96 1008.40 1008.94 1010.91 1011.04 1011.40 1011.16 1011.21 1011.69 1012.23 1012.96 1013.47 1015.21 1016.30 1016.10 1015.48 1015.18 1015.50 1015.92 1016.68 1017.62 1018.57 1019.48 1020.28
1020.26 1018.94 1017.67 1016.06 1015.07 1014.13 1013.32 1012.42 1011.81 1011.08 1010.07 1009.44 1008.87 1008.34 1008.04 1008.10 1007.98 1007.88 1007.82 1007.80 1008.05 1008.48 1009.10 1009.84 1011.39 1011.60 1011.69 1011.33 1011.16 1011.68 1012.33 1012.87 1013.31 1014.11 1014.69 1015.00 1015.13 1014.32 1014.60 1015.13 1015.60 1016.83 1018.34 1019.52 1020.42
1020.42 1019.62 1018.13 1016.73 1015.36 1014.36 1013.40 1012.59 1011.99 1011.32 1010.80 1009.53 1008.97 1008.35 1008.05 1008.22 1007.91 1008.11 1008.16 1008.41 1008.52 1009.01 1009.85 1010.90 1012.29 1012.19 1012.57 1012.07 1011.72 1011.98 1012.22 1012.69 1013.13 1013.61 1014.04 1014.32 1014.65 1013.88 1014.38 1014.96 1015.98 1016.79 1017.92 1019.02 1019.97
1020.12 1019.68 1019.08 1017.00 1015.76 1014.68 1013.59 1012.77 1012.09 1011.67 1010.16 1009.47 1009.06 1008.58 1008.36 1008.21 1008.14 1008.35 1008.52 1008.64 1008.94 1009.71 1010.76 1011.56 1012.71 1013.16 1013.52 1013.01 1012.37 1012.20 1012.05 1012.09 1012.72 1013.23 1013.54 1014.44 1014.33 1014.63 1015.05 1015.58 1016.03 1016.70 1017.58 1018.53 1019.43
Thickness
5704 5708 5711 5715 5719 5724 5729 5735 5739 5744 5748 5752 5755 5758 5761 5763 5767 5768 5771 5794 5797 5799 5799 5795 5792 5790 5789 5783 5787 5782 5746 5740 5756 5752 5772 5782 5781 5787 5793 5783 5786 5786 5784 5791 5789
5701 5705 5709 5713 5717 5722 5728 5733 5738 5744 5748 5752 5755 5758 5761 5763 5767 5770 5800 5802 5800 5799 5793 5786 5780 5784 5770 5774 5773 5764 5739 5754 5774 5777 5773 5777 5784 5784 5780 5777 5776 5781 5791 5794 5786
5697 5701 5706 5712 5717 5722 5727 5732 5738 5743 5748 5752 5755 5758 5761 5763 5766 5783 5804 5803 5800 5798 5796 5791 5787 5782 5770 5772 5768 5763 5753 5769 5782 5788 5784 5780 5780 5787 5778 5766 5781 5781 5785 5788 5780
5693 5698 5704 5710 5716 5722 5728 5733 5737 5742 5747 5752 5755 5757 5760 5762 5753 5796 5804 5804 5799 5797 5793 5785 5780 5769 5762 5762 5770 5763 5769 5777 5786 5790 5782 5780 5788 5781 5784 5786 5798 5797 5794 5787 5777
5689 5695 5702 5709 5715 5722 5729 5734 5738 5742 5747 5750 5753 5756 5758 5757 5766 5798 5801 5801 5797 5793 5785 5779 5775 5769 5762 5766 5769 5763 5772 5781 5788 5788 5786 5790 5785 5786 5790 5801 5804 5799 5793 5785 5778
5685 5692 5699 5706 5714 5722 5729 5735 5740 5744 5747 5750 5752 5754 5756 5747 5793 5796 5796 5795 5794 5788 5783 5780 5777 5778 5772 5770 5769 5777 5780 5785 5788 5790 5784 5780 5785 5790 5799 5803 5795 5795 5787 5785 5781
5680 5687 5695 5703 5712 5721 5729 5736 5742 5746 5749 5751 5752 5753 5752 5762 5793 5792 5792 5791 5792 5790 5780 5785 5787 5778 5775 5771 5782 5779 5772 5781 5787 5789 5784 5788 5771 5779 5798 5799 5789 5787 5788 5786 5782
5676 5683 5691 5700 5710 5720 5729 5737 5744 5749 5750 5751 5750 5751 5748 5786 5788 5789 5790 5787 5790 5790 5787 5791 5789 5780 5772 5778 5768 5764 5759 5749 5779 5787 5783 5784 5754 5786 5792 5792 5782 5783 5784 5781 5779
5672 5679 5688 5697 5707 5717 5728 5737 5744 5748 5749 5749 5748 5748 5747 5785 5780 5792 5791 5783 5784 5786 5787 5789 5782 5765 5764 5747 5734 5736 5734 5749 5759 5778 5780 5775 5760 5787 5787 5783 5776 5779 5780 5781 5778
5667 5674 5683 5694 5703 5714 5726 5736 5739 5743 5743 5744 5746 5738 5761 5768 5783 5788 5788 5785 5777 5778 5772 5771 5754 5745 5736 5731 5710 5728 5734 5740 5745 5769 5770 5764 5763 5778 5786 5783 5782 5781 5774 5775 5776
5662 5669 5678 5689 5699 5710 5722 5730 5727 5729 5736 5738 5743 5745 5759 5775 5787 5781 5783 5775 5773 5764 5746 5753 5737 5727 5736 5740 5745 5744 5738 5735 5746 5763 5763 5762 5761 5771 5778 5777 5774 5774 5772 5773 5779
5657 5664 5673 5684 5694 5706 5711 5717 5714 5715 5713 5744 5748 5750 5764 5769 5753 5770 5783 5761 5753 5736 5745 5734 5724 5740 5745 5743 5741 5740 5736 5734 5749 5760 5760 5755 5762 5768 5771 5784 5787 5781 5774 5772 5771
5651 5659 5667 5679 5690 5697 5696 5710 5710 5712 5706 5738 5751 5752 5757 5761 5749 5755 5769 5759 5746 5731 5732 5721 5737 5746 5745 5742 5735 5733 5732 5738 5738 5750 5754 5750 5745 5749 5770 5773 5775 5774 5770 5770 5767
5645 5651 5658 5671 5684 5679 5696 5706 5706 5708 5689 5722 5740 5752 5759 5760 5749 5770 5772 5760 5745 5729 5726 5727 5742 5742 5740 5734 5735 5729 5747 5746 5747 5732 5716 5736 5702 5739 5746 5756 5763 5755 5747 5753 5757
5635 5643 5649 5654 5658 5669 5697 5700 5704 5706 5659 5736 5740 5765 5758 5752 5757 5759 5773 5758 5734 5733 5729 5723 5734 5736 5736 5738 5744 5733 5748 5741 5740 5721 5722 5722 5702 5723 5731 5731 5731 5728 5730 5731 5742
5627 5633 5640 5645 5648 5675 5685 5690 5697 5665 5656 5721 5739 5735 5736 5747 5751 5756 5756 5761 5750 5732 5733 5726 5743 5744 5742 5748 5745 5750 5733 5716 5703 5697 5682 5708 5699 5699 5703 5706 5713 5711 5714 5720 5725
5621 5627 5632 5634 5651 5670 5675 5678 5652 5643 5708 5714 5723 5730 5726 5729 5735 5742 5733 5726 5714 5702 5706 5721 5724 5742 5750 5735 5737 5727 5704 5672 5675 5664 5670 5700 5688 5692 5705 5709 5710 5712 5714 5715 5714
5616 5626 5638 5644 5654 5655 5658 5653 5641 5674 5685 5713 5720 5722 5714 5724 5727 5731 5719 5710 5723 5716 5689 5689 5687 5726 5742 5733 5723 5717 5707 5664 5667 5651 5673 5688 5679 5692 5706 5705 5703 5703 5700 5699 5694
5610 5620 5627 5645 5644 5645 5645 5626 5645 5666 5692 5695 5707 5707 5709 5723 5721 5722 5712 5710 5720 5719 5696 5685 5696 5731 5740 5743 5737 5715 5700 5709 5667 5657 5662 5672 5687 5696 5700 5695 5691 5688 5687 5681 5680
5594 5601 5619 5636 5635 5635 5630 5629 5650 5671 5684 5689 5683 5699 5693 5707 5709 5703 5700 5723 5722 5724 5728 5706 5695 5721 5733 5734 5726 5720 5715 5688 5668 5654 5658 5663 5676 5675 5692 5686 5680 5676 5674 5674 5669
5583 5598 5623 5625 5623 5626 5617 5626 5647 5666 5672 5676 5676 5684 5695 5699 5702 5695 5700 5721 5725 5718 5720 5704 5697 5700 5720 5712 5703 5701 5693 5679 5670 5657 5644 5640 5661 5690 5690 5690 5681 5674 5670 5666 5659
5564 5591 5609 5612 5610 5600 5613 5630 5648 5657 5667 5669 5675 5676 5684 5695 5696 5697 5697 5712 5729 5720 5703 5707 5690 5677 5692 5708 5711 5710 5696 5684 5661 5660 5642 5645 5658 5700 5692 5686 5680 5673 5669 5659 5654
5542 5556 5596 5602 5597 5600 5616 5630 5640 5647 5651 5659 5665 5675 5681 5683 5685 5694 5704 5719 5724 5715 5706 5704 5677 5662 5670 5688 5703 5693 5690 5681 5667 5657 5647 5638 5653 5690 5689 5686 5677 5669 5664 5658 5648
5528 5559 5576 5588 5592 5605 5612 5620 5628 5646 5647 5656 5662 5673 5675 5677 5684 5686 5694 5703 5710 5707 5709 5705 5673 5678 5667 5680 5688 5685 5686 5682 5679 5656 5647 5650 5672 5678 5674 5677 5672 5665 5659 5651 5643
5514 5537 5550 5577 5585 5598 5607 5616 5619 5624 5642 5647 5654 5659 5665 5662 5669 5674 5682 5692 5697 5696 5694 5689 5670 5678 5679 5688 5691 5689 5682 5677 5680 5670 5665 5670 5663 5681 5680 5678 5680 5667 5655 5646 5637
5501 5517 5529 5546 5567 5585 5592 5604 5611 5618 5623 5633 5645 5656 5658 5654 5665 5665 5676 5679 5687 5688 5681 5672 5656 5671 5664 5674 5680 5676 5678 5673 5672 5666 5667 5666 5661 5680 5679 5674 5669 5663 5655 5645 5637
5491 5501 5510 5538 5555 5573 5579 5594 5605 5609 5626 5632 5640 5646 5650 5659 5667 5670 5673 5673 5681 5675 5667 5665 5654 5649 5648 5659 5664 5655 5668 5671 5670 5668 5667 5656 5665 5667 5668 5667 5665 5659 5653 5646 5636